Location: Newark
(41.8500°S, 167.0500°W)
Time: 23:54:20
(UTC+00:00)

N. Korean satellite - Visible Passes

Search period start: 24 January 2020 00:00
Search period end: 03 February 2020 00:00
Orbit: 454 x 507 km, 97.2° (Epoch: 24 January)

Date Brightness Start Highest point End Pass type
(mag) Time Alt. Az. Time Alt. Az. Time Alt. Az.
26 Jan 9.9 15:09:36 10° ENE 15:12:08 17° ESE 15:14:40 10° SSE visible
29 Jan 9.3 15:25:42 10° NE 15:28:52 26° ESE 15:32:04 10° SSE visible
30 Jan 10.0 15:01:35 10° E 15:03:36 14° ESE 15:05:37 10° SSE visible
01 Feb 8.3 15:42:06 10° NE 15:45:38 41° ESE 15:49:12 10° S visible
02 Feb 9.7 15:17:25 10° ENE 15:20:18 21° ESE 15:23:11 10° SSE visible
